• In Germany
  • List of Countries
  • For 7 days
  • Water Temperature
  • Satellite Maps
  • Weather Map
  • Weather Widgets
  • user-avatar
    Login

    Hourly Weather Paralia

    Today, 16 August, Thursday

    Time Temperature Precipitation Wind Pressure Humidity
    00:00 +25°C° 0 mm 1 mps 746 mmHg 68%
    01:00 +25°C° 0 mm 1 mps 746 mmHg 69%
    02:00 +25°C° 0 mm 1 mps 746 mmHg 69%
    03:00 +25°C° 0 mm 1 mps 746 mmHg 69%
    04:00 +24°C° 0 mm 1 mps 745 mmHg 70%
    05:00 +26°C° 0 mm 1 mps 746 mmHg 65%
    06:00 +27°C° 0 mm 1 mps 746 mmHg 60%
    07:00 +28°C° 0 mm 2 mps 746 mmHg 53%
    08:00 +30°C° 0 mm 2 mps 746 mmHg 48%
    09:00 +31°C° 0 mm 2 mps 746 mmHg 43%
    10:00 +34°C° 0 mm 2 mps 746 mmHg 37%
    11:00 +32°C° 0 mm 2 mps 746 mmHg 39%
    12:00 +32°C° 0 mm 2 mps 746 mmHg 40%
    13:00 +33°C° 0 mm 3 mps 746 mmHg 42%
    14:00 +31°C° 0.2 mm 3 mps 746 mmHg 45%
    15:00 +30°C° 0.2 mm 2 mps 746 mmHg 49%
    16:00 +30°C° 0.2 mm 2 mps 745 mmHg 52%
    17:00 +28°C° 0.3 mm 2 mps 745 mmHg 58%
    18:00 +27°C° 0.3 mm 1 mps 745 mmHg 63%
    19:00 +26°C° 0.3 mm 1 mps 745 mmHg 68%
    20:00 +26°C° 0.1 mm 1 mps 746 mmHg 69%
    21:00 +25°C° 0.1 mm 1 mps 746 mmHg 70%
    22:00 +23°C° 0.1 mm 0 mps 746 mmHg 70%
    23:00 +23°C° 0 mm 0 mps 746 mmHg 71%

    Tomorrow, 17 August, Friday

    Time Temperature Precipitation Wind Pressure Humidity
    00:00 +22°C° 0 mm 0 mps 746 mmHg 72%
    01:00 +24°C° 0 mm 1 mps 745 mmHg 72%
    02:00 +24°C° 0 mm 1 mps 745 mmHg 72%
    03:00 +23°C° 0 mm 1 mps 745 mmHg 72%
    04:00 +23°C° 0 mm 1 mps 745 mmHg 72%
    05:00 +25°C° 0 mm 1 mps 746 mmHg 66%
    06:00 +26°C° 0 mm 1 mps 746 mmHg 60%
    07:00 +27°C° 0 mm 1 mps 746 mmHg 54%
    08:00 +29°C° 0 mm 1 mps 746 mmHg 48%
    09:00 +31°C° 0 mm 1 mps 746 mmHg 41%
    10:00 +33°C° 0 mm 1 mps 747 mmHg 35%
    11:00 +34°C° 0 mm 2 mps 747 mmHg 34%
    12:00 +35°C° 0 mm 2 mps 746 mmHg 33%
    13:00 +35°C° 0 mm 3 mps 746 mmHg 32%
    14:00 +34°C° 0 mm 3 mps 746 mmHg 35%
    15:00 +34°C° 0 mm 3 mps 746 mmHg 37%
    16:00 +33°C° 0 mm 3 mps 746 mmHg 40%
    17:00 +30°C° 0 mm 2 mps 746 mmHg 46%
    18:00 +29°C° 0 mm 2 mps 746 mmHg 52%
    19:00 +27°C° 0 mm 1 mps 746 mmHg 58%
    20:00 +27°C° 0 mm 1 mps 746 mmHg 60%
    21:00 +26°C° 0 mm 1 mps 746 mmHg 63%
    22:00 +26°C° 0 mm 1 mps 747 mmHg 65%
    23:00 +26°C° 0 mm 1 mps 746 mmHg 66%

    Day after tomorrow, 18 August, Saturday

    Time Temperature Precipitation Wind Pressure Humidity
    00:00 +25°C° 0 mm 1 mps 746 mmHg 67%
    01:00 +25°C° 0 mm 1 mps 746 mmHg 67%
    02:00 +25°C° 0 mm 1 mps 746 mmHg 67%
    03:00 +25°C° 0 mm 1 mps 746 mmHg 67%
    04:00 +24°C° 0 mm 1 mps 746 mmHg 67%
    05:00 +26°C° 0 mm 1 mps 746 mmHg 61%
    06:00 +27°C° 0 mm 1 mps 746 mmHg 55%
    07:00 +29°C° 0 mm 1 mps 747 mmHg 49%
    08:00 +31°C° 0 mm 1 mps 747 mmHg 43%
    09:00 +34°C° 0 mm 2 mps 747 mmHg 38%
    10:00 +35°C° 0 mm 2 mps 747 mmHg 32%
    11:00 +36°C° 0 mm 2 mps 747 mmHg 31%
    12:00 +36°C° 0 mm 3 mps 747 mmHg 31%
    13:00 +37°C° 0 mm 3 mps 747 mmHg 30%
    14:00 +36°C° 0 mm 3 mps 746 mmHg 33%
    15:00 +35°C° 0 mm 3 mps 746 mmHg 36%
    16:00 +34°C° 0 mm 3 mps 746 mmHg 39%
    17:00 +32°C° 0 mm 2 mps 746 mmHg 43%
    18:00 +30°C° 0 mm 2 mps 746 mmHg 47%
    19:00 +29°C° 0 mm 1 mps 747 mmHg 51%
    20:00 +28°C° 0 mm 1 mps 747 mmHg 51%
    21:00 +28°C° 0 mm 1 mps 747 mmHg 52%
    22:00 +27°C° 0 mm 1 mps 747 mmHg 52%
    23:00 +27°C° 0 mm 1 mps 747 mmHg 51%

    19 August, Sunday

    Time Temperature Precipitation Wind Pressure Humidity
    00:00 +26°C° 0 mm 1 mps 747 mmHg 50%
    01:00 +26°C° 0 mm 1 mps 746 mmHg 49%
    02:00 +26°C° 0 mm 2 mps 746 mmHg 49%
    03:00 +26°C° 0 mm 2 mps 746 mmHg 48%
    04:00 +25°C° 0 mm 2 mps 746 mmHg 47%
    05:00 +27°C° 0 mm 2 mps 746 mmHg 45%
    06:00 +28°C° 0 mm 2 mps 746 mmHg 44%
    07:00 +29°C° 0 mm 2 mps 747 mmHg 42%
    08:00 +31°C° 0 mm 2 mps 747 mmHg 38%
    09:00 +33°C° 0 mm 3 mps 747 mmHg 33%
    10:00 +35°C° 0 mm 3 mps 747 mmHg 28%
    11:00 +35°C° 0 mm 3 mps 747 mmHg 26%
    12:00 +36°C° 0 mm 3 mps 746 mmHg 25%
    13:00 +36°C° 0 mm 3 mps 746 mmHg 24%
    14:00 +36°C° 0 mm 3 mps 746 mmHg 24%
    15:00 +36°C° 0 mm 3 mps 746 mmHg 25%
    16:00 +35°C° 0 mm 3 mps 746 mmHg 25%
    17:00 +33°C° 0 mm 3 mps 746 mmHg 30%
    18:00 +30°C° 0 mm 3 mps 746 mmHg 34%
    19:00 +28°C° 0 mm 2 mps 746 mmHg 39%
    20:00 +28°C° 0 mm 2 mps 746 mmHg 39%
    21:00 +27°C° 0 mm 2 mps 746 mmHg 39%
    22:00 +26°C° 0 mm 2 mps 746 mmHg 39%
    23:00 +26°C° 0 mm 2 mps 746 mmHg 40%

    20 August, Monday

    Time Temperature Precipitation Wind Pressure Humidity
    00:00 +26°C° 0 mm 2 mps 746 mmHg 41%
    01:00 +26°C° 0 mm 2 mps 745 mmHg 41%
    02:00 +25°C° 0 mm 2 mps 745 mmHg 43%
    03:00 +25°C° 0 mm 2 mps 745 mmHg 44%
    04:00 +25°C° 0 mm 2 mps 745 mmHg 46%
    05:00 +26°C° 0 mm 2 mps 745 mmHg 44%
    06:00 +27°C° 0 mm 2 mps 745 mmHg 43%
    07:00 +29°C° 0 mm 2 mps 746 mmHg 41%
    08:00 +30°C° 0 mm 3 mps 746 mmHg 37%
    09:00 +33°C° 0 mm 3 mps 746 mmHg 32%
    10:00 +34°C° 0 mm 3 mps 746 mmHg 27%
    11:00 +35°C° 0 mm 3 mps 746 mmHg 26%
    12:00 +36°C° 0 mm 4 mps 746 mmHg 25%
    13:00 +36°C° 0 mm 4 mps 746 mmHg 24%
    14:00 +36°C° 0 mm 3 mps 746 mmHg 25%
    15:00 +35°C° 0 mm 3 mps 746 mmHg 26%
    16:00 +35°C° 0 mm 3 mps 746 mmHg 27%
    17:00 +33°C° 0 mm 3 mps 746 mmHg 31%
    18:00 +30°C° 0 mm 3 mps 746 mmHg 35%
    19:00 +28°C° 0 mm 2 mps 746 mmHg 40%
    20:00 +27°C° 0 mm 2 mps 746 mmHg 41%
    21:00 +27°C° 0 mm 2 mps 746 mmHg 43%
    22:00 +26°C° 0 mm 2 mps 746 mmHg 45%
    23:00 +26°C° 0 mm 2 mps 746 mmHg 47%

    21 August, Tuesday

    Time Temperature Precipitation Wind Pressure Humidity
    00:00 +25°C° 0 mm 2 mps 746 mmHg 49%
    01:00 +25°C° 0 mm 2 mps 746 mmHg 51%
    02:00 +25°C° 0 mm 2 mps 746 mmHg 53%
    03:00 +25°C° 0 mm 2 mps 746 mmHg 55%
    04:00 +24°C° 0 mm 2 mps 746 mmHg 57%
    05:00 +26°C° 0 mm 2 mps 746 mmHg 54%
    06:00 +27°C° 0 mm 3 mps 747 mmHg 50%
    07:00 +28°C° 0 mm 3 mps 747 mmHg 47%
    08:00 +30°C° 0 mm 3 mps 747 mmHg 41%
    09:00 +31°C° 0 mm 3 mps 747 mmHg 34%
    10:00 +34°C° 0 mm 3 mps 747 mmHg 28%
    11:00 +35°C° 0 mm 3 mps 747 mmHg 27%
    12:00 +35°C° 0 mm 3 mps 747 mmHg 26%
    13:00 +36°C° 0 mm 3 mps 747 mmHg 25%
    14:00 +36°C° 0 mm 3 mps 747 mmHg 26%
    15:00 +35°C° 0 mm 3 mps 747 mmHg 27%
    16:00 +35°C° 0 mm 3 mps 747 mmHg 28%
    17:00 +32°C° 0 mm 2 mps 747 mmHg 34%
    18:00 +30°C° 0 mm 2 mps 747 mmHg 39%
    19:00 +28°C° 0 mm 2 mps 747 mmHg 44%
    20:00 +27°C° 0 mm 2 mps 747 mmHg 45%
    21:00 +26°C° 0 mm 1 mps 747 mmHg 46%
    22:00 +26°C° 0 mm 1 mps 747 mmHg 47%
    23:00 +26°C° 0 mm 1 mps 747 mmHg 47%
    Show more